Regional Weather Roundup
Issued by NWS

Home | Current Version | Previous Version | Graphics & Text | Print | Product List | Glossary On
Versions: 1 2 3 4 5 6 7 8 9 10 11 12 13 14 15 16 17 18 19 20 21 22 23 24 25 26 27 28 29 30 31 32 33 34 35 36 37 38 39 40 41 42 43 44 45 46 47 48 49 50
000
ASUS43 KBIS 191931
RWRND
NORTH DAKOTA REGIONAL WEATHER ROUNDUP
NATIONAL WEATHER SERVICE EASTERN NORTH DAKOTA/GRAND FORKS ND
200 PM CDT THU APR 19 2018

  NOTE: "FAIR" INDICATES FEW OR NO CLOUDS BELOW 12,000 FEET WITH NO
  SIGNIFICANT WEATHER AND/OR OBSTRUCTIONS TO VISIBILITY.

NDZ001>003-009>011-017-192000-
...NORTHWEST NORTH DAKOTA...

CITY           SKY/WX    TMP DP  RH WIND       PRES   REMARKS
WILLISTON      FAIR      50  37  61 E9        30.36F
MINOT          CLOUDY    44  33  65 CALM      30.40F
MINOT AFB      FAIR      43  34  70 S5        30.37F
$$

NDZ018>021-031>035-040>046-192000-
...SOUTHWEST NORTH DAKOTA...

CITY           SKY/WX    TMP DP  RH WIND       PRES   REMARKS
BISMARCK       FAIR      52  32  46 E7        30.39F
DICKINSON      FAIR      54  28  36 VRB6      30.30F
GARRISON         N/A     44  34  67 NE5       30.39F
HETTINGER      FAIR      54  29  38 SE10      30.32F
$$

NDZ004>008-012>016-024-026-027-054-192000-
...NORTHEAST NORTH DAKOTA...

CITY           SKY/WX    TMP DP  RH WIND       PRES   REMARKS
GRAND FORKS    FAIR      54  29  38 CALM      30.40F
GRAND FORKS AF FAIR      56  31  38 SW9       30.40F
DEVILS LAKE    FAIR      49  33  54 SW8       30.41F
$$

NDZ022-023-025-028>030-036>039-047>053-192000-
...SOUTHEAST NORTH DAKOTA...

CITY           SKY/WX    TMP DP  RH WIND       PRES   REMARKS
JAMESTOWN      FAIR      54  31  41 N7        30.39F
FARGO          FAIR      54  26  34 W10       30.42F
WAHPETON       FAIR      52  32  46 SW6       30.43F
$$




USA.gov is the U.S. government's official web portal to all federal, state and local government web resources and services.